AirNav   ATP
 
 704 users online  

09R Tyler County Airport
Woodville, Texas, USA

GOING TO WOODVILLE?


FAA INFORMATION EFFECTIVE 13 SEPTEMBER 2018

Location

FAA Identifier: 09R
Lat/Long: 30-46-30.7220N / 094-27-30.7170W
30-46.512033N / 094-27.511950W
30.7752006 / -94.4585325
(estimated)
Elevation: 388 ft. / 118 m (estimated)
Variation: 05E (1985)
From city: 2 miles W of WOODVILLE, TX
Time zone: UTC -5 (UTC -6 during Standard Time)
Zip code: 75979

Airport Operations

Airport use: Open to the public
Activation date: 10/1961
Control tower: no
ARTCC: HOUSTON CENTER
FSS: MONTGOMERY COUNTY FLIGHT SERVICE STATION
FOR FP FILING CALL CXO FSS 1-800-833-5602
NOTAMs facility: CXO (NOTAM-D service available)
Attendance: UNATNDD
Wind indicator: lighted
Segmented circle: yes
Lights: DUSK-DAWN. MIRL RY 16/34 PRESET LOW INTST; TO INCR INTST ACTVT - 122.8.
Beacon: white-green (lighted land airport)
Operates sunset to sunrise.

Airport Communications

CTAF: 122.9

Nearby radio navigation aids

VOR radial/distance  VOR name  Freq  Var
LFKr145/26.8LUFKIN VORTAC112.1005E
DASr010/36.4DAISETTA VORTAC116.9005E

 
NDB name  Hdg/Dist  Freq  Var  ID
HARDIN COUNTY335/28.352404EHRD .... .-. -..

Airport Services

Parking: tiedowns
Airframe service: MAJOR
Powerplant service: MAJOR
Bottled oxygen: NONE
Bulk oxygen: NONE

Runway Information

Runway 16/34

Dimensions: 4000 x 60 ft. / 1219 x 18 m
Surface: asphalt, in fair condition
Weight bearing capacity: 
Single wheel: 30.0
Runway edge lights: medium intensity
RUNWAY 16  RUNWAY 34
Gradient: 0.5%0.5%
Traffic pattern: leftleft
Displaced threshold: 178 ft.no
Markings: basic, in fair conditionbasic, in fair condition
Visual slope indicator: 2-light PAPI on left (3.00 degrees glide path)
Obstructions: 40 ft. trees, 291 ft. from runway, 100 ft. right of centerline, 2:1 slope to clear
+11 FT TREES 36 FT FM THLD TO 200 FT FM THLD, 116 FT RIGHT
67 ft. trees, 1200 ft. from runway, 110 ft. right of centerline, 15:1 slope to clear

Airport Ownership and Management from official FAA records

Ownership: Publicly-owned
Owner: TYLER COUNTY
TYLER CO COURTHOUSE, ROOM 100
WOODVILLE, TX 75979
Phone 409-283-2141
Manager: MIKE MARSHALL
205 N. CHARLTON
WOODVILLE, TX 75979
Phone 409-283-7623
COUNTY COMMISSIONER.

Airport Operational Statistics

Aircraft based on the field: 3
Single engine airplanes: 3
    
Aircraft operations: avg 23/week *
75% local general aviation
25% transient general aviation
* for 12-month period ending 09 December 2015

Additional Remarks

RY 16 SAFETY AREA OBSTRUCTION: 5' DROP-OFF 25' FM WEST SIDE 400' SOUTH OF THR & 20' DROP-OFF 100' NORTH OF THR.
PAEW

Instrument Procedures

There are no published instrument procedures at 09R.

Some nearby airports with instrument procedures:

KJAS - Jasper County Airport-Bell Field (23 nm E)
45R - Hawthorne Field Airport (28 nm S)
00R - Livingston Municipal Airport (29 nm W)
KLFK - Angelina County Airport (31 nm NW)
6R3 - Cleveland Municipal Airport (38 nm SW)
 
Loc | Ops | Rwys | IFR | FBO | Links
Com | Nav | Svcs | Stats | Notes


 
Area around 09R (Tyler County Airport)
 
Road maps at: MapQuest Bing Google
 
Aerial photo
WARNING: Photo may not be current or correct
Aerial photo of 09R (Tyler County Airport)
Do you have a better or more recent aerial photo of Tyler County Airport that you would like to share? If so, please send us your photo.

 
Sectional chart

 
Airport distance calculator
Flying to Tyler County Airport? Find the distance to fly.

From to 09R

Sunrise and sunset
Times for 25-Sep-2018
 Local
(UTC-5)
 Zulu
(UTC)
Morning civil twilight06:4511:45
Sunrise07:0912:09
Sunset19:1000:10
Evening civil twilight19:3400:34

Current date and time
Zulu (UTC)  25-Sep-2018 11:40:14
Local (UTC-5)  25-Sep-2018 06:40:14
 
METAR
KJAS 
23nm E 
251115Z AUTO 00000KT 10SM CLR 16/16 A2998 RMK AO2 T01610159
KLFK 
31nm NW 
251053Z AUTO 00000KT 10SM CLR 22/22 A2995 RMK AO2 SLP138 T02170217
K6R3 
38nm SW 
251115Z AUTO 00000KT 5SM BR CLR 21/20 A2995 RMK AO2 T02100202
KBMT 
44nm S 
251115Z AUTO 00000KT 10SM SCT100 25/23 A2995 RMK AO2 T02450230
TAF
KLFK 
31nm NW 
250540Z 2506/2606 15004KT P6SM BKN090 FM250900 VRB03KT 4SM BR BKN020 TEMPO 2510/2514 1/2SM FG OVC001 FM251400 16006KT P6SM OVC025 FM251600 19007KT P6SM VCTS SCT050CB FM260000 14003KT P6SM SCT250
NOTAMs
Click for the latest NOTAMs
NOTAMs are issued by the DoD/FAA and will open in a separate window not controlled by AirNav.

 

 
 

Where to Eat: Catering, Restaurants, Food shops

  
 Business Name 
 
 Contact 
 
 Services / Description 
 
Distance
 
Comments
  
The Pickett House 409-283-3371
no information available

If you are affiliated with The Pickett House and would like to show here your services, contact info, web link, logo, and more, click here
1.5 miles
free shuttle
 
   2 read write
 

Would you like to see your business listed on this page?

 If your business provides an interesting product or service to pilots, flight crews, aircraft, or users of the Tyler County Airport, you should consider listing it here.  To start the listing process, click on the button below
 
Add a business
 

Other Pages about Tyler County Airport

Update a link
 
Copyright © AirNav, LLC. All rights reserved. Privacy Policy  Contact